owner,sensor,date,latitude,longitude,vertical_datum,sea_water_practical_salinity,qcFlag 
SCCF RECON,ioos:station:SCCF:18:1,2017-06-01T00:00:00Z,26.6955,-81.8138,1.586,7.11,1111122 
SCCF RECON,ioos:station:SCCF:18:1,2017-06-01T01:00:00Z,26.6955,-81.8138,1.58,6.7,1111122 
SCCF RECON,ioos:station:SCCF:18:1,2017-06-01T02:00:00Z,26.6955,-81.8138,1.581,6.5,1111122 
SCCF RECON,ioos:station:SCCF:18:1,2017-06-01T03:00:00Z,26.6955,-81.8138,1.528,6.33,1111122 
SCCF RECON,ioos:station:SCCF:18:1,2017-06-01T04:00:00Z,26.6955,-81.8138,1.479,6.19,1111122 
SCCF RECON,ioos:station:SCCF:18:1,2017-06-01T05:00:00Z,26.6955,-81.8138,1.415,6.14,1111122 
SCCF RECON,ioos:station:SCCF:18:1,2017-06-01T06:00:00Z,26.6955,-81.8138,1.363,6.08,1111122 
SCCF RECON,ioos:station:SCCF:18:1,2017-06-01T07:00:00Z,26.6955,-81.8138,1.305,5.99,1111122 
SCCF RECON,ioos:station:SCCF:18:1,2017-06-01T08:00:00Z,26.6955,-81.8138,1.251,5.98,1111122 
SCCF RECON,ioos:station:SCCF:18:1,2017-06-01T09:00:00Z,26.6955,-81.8138,1.207,5.96,1111122 
SCCF RECON,ioos:station:SCCF:18:1,2017-06-01T10:00:00Z,26.6955,-81.8138,1.194,6.0,1111122 
SCCF RECON,ioos:station:SCCF:18:1,2017-06-01T11:00:00Z,26.6955,-81.8138,1.247,6.1,1111122 
SCCF RECON,ioos:station:SCCF:18:1,2017-06-01T12:00:00Z,26.6955,-81.8138,1.321,6.97,1111122 
SCCF RECON,ioos:station:SCCF:18:1,2017-06-01T13:00:00Z,26.6955,-81.8138,1.396,6.77,1111122 
SCCF RECON,ioos:station:SCCF:18:1,2017-06-01T14:00:00Z,26.6955,-81.8138,1.432,7.28,1111122 
SCCF RECON,ioos:station:SCCF:18:1,2017-06-01T15:00:00Z,26.6955,-81.8138,1.469,7.06,1111122 
SCCF RECON,ioos:station:SCCF:18:1,2017-06-01T16:00:00Z,26.6955,-81.8138,1.487,7.02,1111122 
SCCF RECON,ioos:station:SCCF:18:1,2017-06-01T17:00:00Z,26.6955,-81.8138,1.463,6.69,1111122 
SCCF RECON,ioos:station:SCCF:18:1,2017-06-01T18:00:00Z,26.6955,-81.8138,1.44,6.68,1111122 
SCCF RECON,ioos:station:SCCF:18:1,2017-06-01T19:00:00Z,26.6955,-81.8138,1.423,6.86,1111122 
SCCF RECON,ioos:station:SCCF:18:1,2017-06-01T20:00:00Z,26.6955,-81.8138,1.366,6.41,1111122 
SCCF RECON,ioos:station:SCCF:18:1,2017-06-01T21:00:00Z,26.6955,-81.8138,1.313,6.28,1111122 
SCCF RECON,ioos:station:SCCF:18:1,2017-06-01T22:00:00Z,26.6955,-81.8138,1.313,6.27,1111122 
SCCF RECON,ioos:station:SCCF:18:1,2017-06-01T23:00:00Z,26.6955,-81.8138,1.387,6.79,1111122 
SCCF RECON,ioos:station:SCCF:18:1,2017-06-02T00:00:00Z,26.6955,-81.8138,1.433,7.1,1111122 
SCCF RECON,ioos:station:SCCF:18:1,2017-06-02T01:00:00Z,26.6955,-81.8138,1.46,6.74,1111122 
SCCF RECON,ioos:station:SCCF:18:1,2017-06-02T02:00:00Z,26.6955,-81.8138,1.483,6.77,1111122 
SCCF RECON,ioos:station:SCCF:18:1,2017-06-02T03:00:00Z,26.6955,-81.8138,1.513,6.98,1111122 
SCCF RECON,ioos:station:SCCF:18:1,2017-06-02T04:00:00Z,26.6955,-81.8138,1.503,6.46,1111122 
SCCF RECON,ioos:station:SCCF:18:1,2017-06-02T05:00:00Z,26.6955,-81.8138,1.431,6.36,1111122 
SCCF RECON,ioos:station:SCCF:18:1,2017-06-02T06:00:00Z,26.6955,-81.8138,1.367,6.42,1111122 
SCCF RECON,ioos:station:SCCF:18:1,2017-06-02T07:00:00Z,26.6955,-81.8138,1.314,6.32,1111122 
SCCF RECON,ioos:station:SCCF:18:1,2017-06-02T08:00:00Z,26.6955,-81.8138,1.281,6.32,1111122 
SCCF RECON,ioos:station:SCCF:18:1,2017-06-02T09:00:00Z,26.6955,-81.8138,1.232,6.37,1111122 
SCCF RECON,ioos:station:SCCF:18:1,2017-06-02T10:00:00Z,26.6955,-81.8138,1.19,6.38,1111122 
SCCF RECON,ioos:station:SCCF:18:1,2017-06-02T11:00:00Z,26.6955,-81.8138,1.207,6.45,1111122 
SCCF RECON,ioos:station:SCCF:18:1,2017-06-02T12:00:00Z,26.6955,-81.8138,1.283,7.05,1111122 
SCCF RECON,ioos:station:SCCF:18:1,2017-06-02T13:00:00Z,26.6955,-81.8138,1.37,7.16,1111122 
SCCF RECON,ioos:station:SCCF:18:1,2017-06-02T14:00:00Z,26.6955,-81.8138,1.43,7.03,1111122 
SCCF RECON,ioos:station:SCCF:18:1,2017-06-02T15:00:00Z,26.6955,-81.8138,1.473,7.47,1111122 
SCCF RECON,ioos:station:SCCF:18:1,2017-06-02T16:00:00Z,26.6955,-81.8138,1.52,7.32,1111122 
SCCF RECON,ioos:station:SCCF:18:1,2017-06-02T17:00:00Z,26.6955,-81.8138,1.548,7.49,1111122 
SCCF RECON,ioos:station:SCCF:18:1,2017-06-02T18:00:00Z,26.6955,-81.8138,1.527,6.92,1111122 
SCCF RECON,ioos:station:SCCF:18:1,2017-06-02T19:00:00Z,26.6955,-81.8138,1.469,7.19,1111122 
SCCF RECON,ioos:station:SCCF:18:1,2017-06-02T20:00:00Z,26.6955,-81.8138,1.45,7.63,1111122 
SCCF RECON,ioos:station:SCCF:18:1,2017-06-02T21:00:00Z,26.6955,-81.8138,1.384,6.61,1111122 
SCCF RECON,ioos:station:SCCF:18:1,2017-06-02T22:00:00Z,26.6955,-81.8138,1.302,6.18,1111122 
SCCF RECON,ioos:station:SCCF:18:1,2017-06-02T23:00:00Z,26.6955,-81.8138,1.289,8.06,1111122 
SCCF RECON,ioos:station:SCCF:18:1,2017-06-03T00:00:00Z,26.6955,-81.8138,1.305,6.92,1111122 
SCCF RECON,ioos:station:SCCF:18:1,2017-06-03T01:00:00Z,26.6955,-81.8138,1.322,7.04,1111122 
SCCF RECON,ioos:station:SCCF:18:1,2017-06-03T02:00:00Z,26.6955,-81.8138,1.375,7.41,1111122 
SCCF RECON,ioos:station:SCCF:18:1,2017-06-03T03:00:00Z,26.6955,-81.8138,1.427,6.88,1111122 
SCCF RECON,ioos:station:SCCF:18:1,2017-06-03T04:00:00Z,26.6955,-81.8138,1.451,7.07,1111122 
SCCF RECON,ioos:station:SCCF:18:1,2017-06-03T05:00:00Z,26.6955,-81.8138,1.44,7.0,1111122 
SCCF RECON,ioos:station:SCCF:18:1,2017-06-03T06:00:00Z,26.6955,-81.8138,1.385,6.73,1111122 
SCCF RECON,ioos:station:SCCF:18:1,2017-06-03T07:00:00Z,26.6955,-81.8138,1.325,6.73,1111122 
SCCF RECON,ioos:station:SCCF:18:1,2017-06-03T08:00:00Z,26.6955,-81.8138,1.285,6.85,1111122 
SCCF RECON,ioos:station:SCCF:18:1,2017-06-03T09:00:00Z,26.6955,-81.8138,1.254,6.86,1111122 
SCCF RECON,ioos:station:SCCF:18:1,2017-06-03T10:00:00Z,26.6955,-81.8138,1.219,6.74,1111122 
SCCF RECON,ioos:station:SCCF:18:1,2017-06-03T11:00:00Z,26.6955,-81.8138,1.204,6.48,1111122 
SCCF RECON,ioos:station:SCCF:18:1,2017-06-03T12:00:00Z,26.6955,-81.8138,1.257,6.43,1111122 
SCCF RECON,ioos:station:SCCF:18:1,2017-06-03T13:00:00Z,26.6955,-81.8138,1.337,7.41,1111122 
SCCF RECON,ioos:station:SCCF:18:1,2017-06-03T14:00:00Z,26.6955,-81.8138,1.414,6.88,1111122 
SCCF RECON,ioos:station:SCCF:18:1,2017-06-03T15:00:00Z,26.6955,-81.8138,1.458,7.35,1111122 
SCCF RECON,ioos:station:SCCF:18:1,2017-06-03T16:00:00Z,26.6955,-81.8138,1.507,7.66,1111122 
SCCF RECON,ioos:station:SCCF:18:1,2017-06-03T17:00:00Z,26.6955,-81.8138,1.552,7.62,1111122 
SCCF RECON,ioos:station:SCCF:18:1,2017-06-03T18:00:00Z,26.6955,-81.8138,1.557,7.36,1111122 
SCCF RECON,ioos:station:SCCF:18:1,2017-06-03T19:00:00Z,26.6955,-81.8138,1.488,7.2,1111122 
SCCF RECON,ioos:station:SCCF:18:1,2017-06-03T20:00:00Z,26.6955,-81.8138,1.405,6.56,1111122 
SCCF RECON,ioos:station:SCCF:18:1,2017-06-03T21:00:00Z,26.6955,-81.8138,1.36,6.8,1111122 
SCCF RECON,ioos:station:SCCF:18:1,2017-06-03T22:00:00Z,26.6955,-81.8138,1.32,6.67,1111122 
SCCF RECON,ioos:station:SCCF:18:1,2017-06-03T23:00:00Z,26.6955,-81.8138,1.288,6.45,1111122 
SCCF RECON,ioos:station:SCCF:18:1,2017-06-04T00:00:00Z,26.6955,-81.8138,1.265,6.41,1111122 
SCCF RECON,ioos:station:SCCF:18:1,2017-06-04T01:00:00Z,26.6955,-81.8138,1.273,6.34,1111122 
SCCF RECON,ioos:station:SCCF:18:1,2017-06-04T02:00:00Z,26.6955,-81.8138,1.307,6.48,1111122 
SCCF RECON,ioos:station:SCCF:18:1,2017-06-04T03:00:00Z,26.6955,-81.8138,1.362,6.48,1111122 
SCCF RECON,ioos:station:SCCF:18:1,2017-06-04T04:00:00Z,26.6955,-81.8138,1.402,6.49,1111122 
SCCF RECON,ioos:station:SCCF:18:1,2017-06-04T05:00:00Z,26.6955,-81.8138,1.427,6.61,1111122 
SCCF RECON,ioos:station:SCCF:18:1,2017-06-04T06:00:00Z,26.6955,-81.8138,1.44,6.41,1111122 
SCCF RECON,ioos:station:SCCF:18:1,2017-06-04T07:00:00Z,26.6955,-81.8138,1.429,6.4,1111122 
SCCF RECON,ioos:station:SCCF:18:1,2017-06-04T08:00:00Z,26.6955,-81.8138,1.374,6.34,1111122 
SCCF RECON,ioos:station:SCCF:18:1,2017-06-04T09:00:00Z,26.6955,-81.8138,1.32,6.32,1111122 
SCCF RECON,ioos:station:SCCF:18:1,2017-06-04T10:00:00Z,26.6955,-81.8138,1.29,6.39,1111122 
SCCF RECON,ioos:station:SCCF:18:1,2017-06-04T11:00:00Z,26.6955,-81.8138,1.264,6.36,1111122 
SCCF RECON,ioos:station:SCCF:18:1,2017-06-04T12:00:00Z,26.6955,-81.8138,1.257,6.32,1111122 
SCCF RECON,ioos:station:SCCF:18:1,2017-06-04T13:00:00Z,26.6955,-81.8138,1.31,6.47,1111122 
SCCF RECON,ioos:station:SCCF:18:1,2017-06-04T14:00:00Z,26.6955,-81.8138,1.395,7.47,1111122 
SCCF RECON,ioos:station:SCCF:18:1,2017-06-04T15:00:00Z,26.6955,-81.8138,1.464,7.16,1111122 
SCCF RECON,ioos:station:SCCF:18:1,2017-06-04T16:00:00Z,26.6955,-81.8138,1.517,7.84,1111122 
SCCF RECON,ioos:station:SCCF:18:1,2017-06-04T17:00:00Z,26.6955,-81.8138,1.559,7.65,1111122 
SCCF RECON,ioos:station:SCCF:18:1,2017-06-04T18:00:00Z,26.6955,-81.8138,1.582,7.66,1111122 
SCCF RECON,ioos:station:SCCF:18:1,2017-06-04T19:00:00Z,26.6955,-81.8138,1.55,6.95,1111122 
SCCF RECON,ioos:station:SCCF:18:1,2017-06-04T20:00:00Z,26.6955,-81.8138,1.462,6.3,1111122 
SCCF RECON,ioos:station:SCCF:18:1,2017-06-04T21:00:00Z,26.6955,-81.8138,1.394,6.63,1111122 
SCCF RECON,ioos:station:SCCF:18:1,2017-06-04T22:00:00Z,26.6955,-81.8138,1.36,6.51,1111122 
SCCF RECON,ioos:station:SCCF:18:1,2017-06-04T23:00:00Z,26.6955,-81.8138,1.302,6.4,1111122 
SCCF RECON,ioos:station:SCCF:18:1,2017-06-05T00:00:00Z,26.6955,-81.8138,1.258,6.36,1111122 
SCCF RECON,ioos:station:SCCF:18:1,2017-06-05T01:00:00Z,26.6955,-81.8138,1.229,6.37,1111122 
SCCF RECON,ioos:station:SCCF:18:1,2017-06-05T02:00:00Z,26.6955,-81.8138,1.248,6.37,1111122 
SCCF RECON,ioos:station:SCCF:18:1,2017-06-05T03:00:00Z,26.6955,-81.8138,1.317,6.72,1111122 
SCCF RECON,ioos:station:SCCF:18:1,2017-06-05T04:00:00Z,26.6955,-81.8138,1.384,6.63,1111122 
SCCF RECON,ioos:station:SCCF:18:1,2017-06-05T05:00:00Z,26.6955,-81.8138,1.426,6.77,1111122 
SCCF RECON,ioos:station:SCCF:18:1,2017-06-05T06:00:00Z,26.6955,-81.8138,1.457,7.23,1111122 
SCCF RECON,ioos:station:SCCF:18:1,2017-06-05T07:00:00Z,26.6955,-81.8138,1.489,6.98,1111122 
SCCF RECON,ioos:station:SCCF:18:1,2017-06-05T08:00:00Z,26.6955,-81.8138,1.501,6.77,1111122 
SCCF RECON,ioos:station:SCCF:18:1,2017-06-05T09:00:00Z,26.6955,-81.8138,1.459,6.51,1111122 
SCCF RECON,ioos:station:SCCF:18:1,2017-06-05T10:00:00Z,26.6955,-81.8138,1.397,6.35,1111122 
SCCF RECON,ioos:station:SCCF:18:1,2017-06-05T11:00:00Z,26.6955,-81.8138,1.352,6.38,1111122 
SCCF RECON,ioos:station:SCCF:18:1,2017-06-05T12:00:00Z,26.6955,-81.8138,1.342,6.49,1111122 
SCCF RECON,ioos:station:SCCF:18:1,2017-06-05T13:00:00Z,26.6955,-81.8138,1.376,6.62,1111122 
SCCF RECON,ioos:station:SCCF:18:1,2017-06-05T14:00:00Z,26.6955,-81.8138,1.448,6.95,1111122 
SCCF RECON,ioos:station:SCCF:18:1,2017-06-05T15:00:00Z,26.6955,-81.8138,1.524,6.82,1111122 
SCCF RECON,ioos:station:SCCF:18:1,2017-06-05T16:00:00Z,26.6955,-81.8138,1.576,7.34,1111122 
SCCF RECON,ioos:station:SCCF:18:1,2017-06-05T17:00:00Z,26.6955,-81.8138,1.63,7.71,1111122 
SCCF RECON,ioos:station:SCCF:18:1,2017-06-05T18:00:00Z,26.6955,-81.8138,1.685,7.77,1111122 
SCCF RECON,ioos:station:SCCF:18:1,2017-06-05T19:00:00Z,26.6955,-81.8138,1.71,8.2,1111122 
SCCF RECON,ioos:station:SCCF:18:1,2017-06-05T20:00:00Z,26.6955,-81.8138,1.61,7.8,1111122 
SCCF RECON,ioos:station:SCCF:18:1,2017-06-05T21:00:00Z,26.6955,-81.8138,1.51,6.76,1111122 
SCCF RECON,ioos:station:SCCF:18:1,2017-06-05T22:00:00Z,26.6955,-81.8138,1.43,6.9,1111122 
SCCF RECON,ioos:station:SCCF:18:1,2017-06-05T23:00:00Z,26.6955,-81.8138,1.378,6.6,1111122 
SCCF RECON,ioos:station:SCCF:18:1,2017-06-06T00:00:00Z,26.6955,-81.8138,1.332,6.57,1111122 
SCCF RECON,ioos:station:SCCF:18:1,2017-06-06T01:00:00Z,26.6955,-81.8138,1.277,6.51,1111122 
SCCF RECON,ioos:station:SCCF:18:1,2017-06-06T02:00:00Z,26.6955,-81.8138,1.237,6.53,1111122 
SCCF RECON,ioos:station:SCCF:18:1,2017-06-06T03:00:00Z,26.6955,-81.8138,1.246,6.58,1111122 
SCCF RECON,ioos:station:SCCF:18:1,2017-06-06T04:00:00Z,26.6955,-81.8138,1.303,7.08,1111122 
SCCF RECON,ioos:station:SCCF:18:1,2017-06-06T05:00:00Z,26.6955,-81.8138,1.372,6.72,1111122 
SCCF RECON,ioos:station:SCCF:18:1,2017-06-06T06:00:00Z,26.6955,-81.8138,1.419,7.09,1111122 
SCCF RECON,ioos:station:SCCF:18:1,2017-06-06T07:00:00Z,26.6955,-81.8138,1.455,7.17,1111122 
SCCF RECON,ioos:station:SCCF:18:1,2017-06-06T08:00:00Z,26.6955,-81.8138,1.484,7.33,1111122 
SCCF RECON,ioos:station:SCCF:18:1,2017-06-06T09:00:00Z,26.6955,-81.8138,1.461,6.9,1111122 
SCCF RECON,ioos:station:SCCF:18:1,2017-06-06T10:00:00Z,26.6955,-81.8138,1.446,6.6,1111122 
SCCF RECON,ioos:station:SCCF:18:1,2017-06-06T11:00:00Z,26.6955,-81.8138,1.409,6.54,1111122 
SCCF RECON,ioos:station:SCCF:18:1,2017-06-06T12:00:00Z,26.6955,-81.8138,1.361,6.57,1111122 
SCCF RECON,ioos:station:SCCF:18:1,2017-06-06T13:00:00Z,26.6955,-81.8138,1.393,6.66,1111122 
SCCF RECON,ioos:station:SCCF:18:1,2017-06-06T14:00:00Z,26.6955,-81.8138,1.457,7.0,1111122 
SCCF RECON,ioos:station:SCCF:18:1,2017-06-06T15:00:00Z,26.6955,-81.8138,1.551,6.89,1111122 
SCCF RECON,ioos:station:SCCF:18:1,2017-06-06T16:00:00Z,26.6955,-81.8138,1.608,6.94,1111122 
SCCF RECON,ioos:station:SCCF:18:1,2017-06-06T17:00:00Z,26.6955,-81.8138,1.68,7.47,1111122 
SCCF RECON,ioos:station:SCCF:18:1,2017-06-06T18:00:00Z,26.6955,-81.8138,1.715,8.1,1111122 
SCCF RECON,ioos:station:SCCF:18:1,2017-06-06T19:00:00Z,26.6955,-81.8138,1.75,7.79,1111122 
SCCF RECON,ioos:station:SCCF:18:1,2017-06-06T20:00:00Z,26.6955,-81.8138,1.816,8.36,1111122 
SCCF RECON,ioos:station:SCCF:18:1,2017-06-06T21:00:00Z,26.6955,-81.8138,1.86,9.16,1111122 
SCCF RECON,ioos:station:SCCF:18:1,2017-06-06T22:00:00Z,26.6955,-81.8138,1.759,8.25,1111122 
SCCF RECON,ioos:station:SCCF:18:1,2017-06-06T23:00:00Z,26.6955,-81.8138,1.649,6.8,1111122 
SCCF RECON,ioos:station:SCCF:18:1,2017-06-07T00:00:00Z,26.6955,-81.8138,1.56,7.22,1111122 
SCCF RECON,ioos:station:SCCF:18:1,2017-06-07T01:00:00Z,26.6955,-81.8138,1.511,6.9,1111122 
SCCF RECON,ioos:station:SCCF:18:1,2017-06-07T02:00:00Z,26.6955,-81.8138,1.475,6.65,1111122 
SCCF RECON,ioos:station:SCCF:18:1,2017-06-07T03:00:00Z,26.6955,-81.8138,1.428,6.73,1111122 
SCCF RECON,ioos:station:SCCF:18:1,2017-06-07T04:00:00Z,26.6955,-81.8138,1.417,6.5,1111122 
SCCF RECON,ioos:station:SCCF:18:1,2017-06-07T05:00:00Z,26.6955,-81.8138,1.455,6.62,1111122 
SCCF RECON,ioos:station:SCCF:18:1,2017-06-07T06:00:00Z,26.6955,-81.8138,1.52,6.63,1111122 
SCCF RECON,ioos:station:SCCF:18:1,2017-06-07T07:00:00Z,26.6955,-81.8138,1.59,6.55,1111122 
SCCF RECON,ioos:station:SCCF:18:1,2017-06-07T08:00:00Z,26.6955,-81.8138,1.618,6.64,1111122 
SCCF RECON,ioos:station:SCCF:18:1,2017-06-07T09:00:00Z,26.6955,-81.8138,1.64,6.62,1111122 
SCCF RECON,ioos:station:SCCF:18:1,2017-06-07T10:00:00Z,26.6955,-81.8138,1.678,6.65,1111122 
SCCF RECON,ioos:station:SCCF:18:1,2017-06-07T11:00:00Z,26.6955,-81.8138,1.69,6.65,1111122 
SCCF RECON,ioos:station:SCCF:18:1,2017-06-07T12:00:00Z,26.6955,-81.8138,1.626,6.53,1111122 
SCCF RECON,ioos:station:SCCF:18:1,2017-06-07T13:00:00Z,26.6955,-81.8138,1.567,6.71,1111122 
SCCF RECON,ioos:station:SCCF:18:1,2017-06-07T14:00:00Z,26.6955,-81.8138,1.616,6.72,1111122 
SCCF RECON,ioos:station:SCCF:18:1,2017-06-07T15:00:00Z,26.6955,-81.8138,1.717,6.88,1111122 
SCCF RECON,ioos:station:SCCF:18:1,2017-06-07T16:00:00Z,26.6955,-81.8138,1.819,6.8,1111122 
SCCF RECON,ioos:station:SCCF:18:1,2017-06-07T17:00:00Z,26.6955,-81.8138,1.861,6.76,1111122 
SCCF RECON,ioos:station:SCCF:18:1,2017-06-07T18:00:00Z,26.6955,-81.8138,2.009,6.88,1111122 
SCCF RECON,ioos:station:SCCF:18:1,2017-06-07T19:00:00Z,26.6955,-81.8138,2.039,6.89,1111122 
SCCF RECON,ioos:station:SCCF:18:1,2017-06-07T20:00:00Z,26.6955,-81.8138,2.057,6.84,1111122 
SCCF RECON,ioos:station:SCCF:18:1,2017-06-07T21:00:00Z,26.6955,-81.8138,1.997,6.61,1111122 
SCCF RECON,ioos:station:SCCF:18:1,2017-06-07T22:00:00Z,26.6955,-81.8138,1.925,6.42,1111122 
SCCF RECON,ioos:station:SCCF:18:1,2017-06-07T23:00:00Z,26.6955,-81.8138,1.86,5.99,1111122 
SCCF RECON,ioos:station:SCCF:18:1,2017-06-08T00:00:00Z,26.6955,-81.8138,1.79,5.15,1111122 
SCCF RECON,ioos:station:SCCF:18:1,2017-06-08T01:00:00Z,26.6955,-81.8138,1.739,4.66,1111122 
SCCF RECON,ioos:station:SCCF:18:1,2017-06-08T02:00:00Z,26.6955,-81.8138,1.671,4.29,1111122 
SCCF RECON,ioos:station:SCCF:18:1,2017-06-08T03:00:00Z,26.6955,-81.8138,1.627,3.96,1111122 
SCCF RECON,ioos:station:SCCF:18:1,2017-06-08T04:00:00Z,26.6955,-81.8138,1.589,3.69,1111122 
SCCF RECON,ioos:station:SCCF:18:1,2017-06-08T05:00:00Z,26.6955,-81.8138,1.581,3.52,1111122 
SCCF RECON,ioos:station:SCCF:18:1,2017-06-08T06:00:00Z,26.6955,-81.8138,1.631,3.24,1111122 
SCCF RECON,ioos:station:SCCF:18:1,2017-06-08T07:00:00Z,26.6955,-81.8138,1.693,2.98,1111122 
SCCF RECON,ioos:station:SCCF:18:1,2017-06-08T08:00:00Z,26.6955,-81.8138,1.735,2.91,1111122 
SCCF RECON,ioos:station:SCCF:18:1,2017-06-08T09:00:00Z,26.6955,-81.8138,1.737,2.98,1111122 
SCCF RECON,ioos:station:SCCF:18:1,2017-06-08T10:00:00Z,26.6955,-81.8138,1.722,2.85,1111122 
SCCF RECON,ioos:station:SCCF:18:1,2017-06-08T11:00:00Z,26.6955,-81.8138,1.7,2.79,1111122 
SCCF RECON,ioos:station:SCCF:18:1,2017-06-08T12:00:00Z,26.6955,-81.8138,1.673,2.54,1111122 
SCCF RECON,ioos:station:SCCF:18:1,2017-06-08T13:00:00Z,26.6955,-81.8138,1.687,2.27,1111122 
SCCF RECON,ioos:station:SCCF:18:1,2017-06-08T14:00:00Z,26.6955,-81.8138,1.701,1.99,1111122 
SCCF RECON,ioos:station:SCCF:18:1,2017-06-08T15:00:00Z,26.6955,-81.8138,1.729,1.72,1111122 
SCCF RECON,ioos:station:SCCF:18:1,2017-06-08T16:00:00Z,26.6955,-81.8138,1.83,1.81,1111122 
SCCF RECON,ioos:station:SCCF:18:1,2017-06-08T17:00:00Z,26.6955,-81.8138,1.87,1.63,1111122 
SCCF RECON,ioos:station:SCCF:18:1,2017-06-08T18:00:00Z,26.6955,-81.8138,1.917,1.56,1111122 
SCCF RECON,ioos:station:SCCF:18:1,2017-06-08T19:00:00Z,26.6955,-81.8138,1.927,1.8,1111122 
SCCF RECON,ioos:station:SCCF:18:1,2017-06-08T20:00:00Z,26.6955,-81.8138,1.893,1.49,1111122 
SCCF RECON,ioos:station:SCCF:18:1,2017-06-08T21:00:00Z,26.6955,-81.8138,1.831,1.32,1111122 
SCCF RECON,ioos:station:SCCF:18:1,2017-06-08T22:00:00Z,26.6955,-81.8138,1.777,1.26,1111122 
SCCF RECON,ioos:station:SCCF:18:1,2017-06-08T23:00:00Z,26.6955,-81.8138,1.721,1.18,1111122 
SCCF RECON,ioos:station:SCCF:18:1,2017-06-09T00:00:00Z,26.6955,-81.8138,1.674,1.23,1111122 
SCCF RECON,ioos:station:SCCF:18:1,2017-06-09T01:00:00Z,26.6955,-81.8138,1.627,1.15,1111122 
SCCF RECON,ioos:station:SCCF:18:1,2017-06-09T02:00:00Z,26.6955,-81.8138,1.572,1.12,1111122 
SCCF RECON,ioos:station:SCCF:18:1,2017-06-09T03:00:00Z,26.6955,-81.8138,1.523,1.03,1111122 
SCCF RECON,ioos:station:SCCF:18:1,2017-06-09T04:00:00Z,26.6955,-81.8138,1.48,1.17,1111122 
SCCF RECON,ioos:station:SCCF:18:1,2017-06-09T05:00:00Z,26.6955,-81.8138,1.452,1.04,1111122 
SCCF RECON,ioos:station:SCCF:18:1,2017-06-09T06:00:00Z,26.6955,-81.8138,1.448,0.87,1111122 
SCCF RECON,ioos:station:SCCF:18:1,2017-06-09T07:00:00Z,26.6955,-81.8138,1.438,0.76,1111122 
SCCF RECON,ioos:station:SCCF:18:1,2017-06-09T08:00:00Z,26.6955,-81.8138,1.478,0.75,1111122 
SCCF RECON,ioos:station:SCCF:18:1,2017-06-09T09:00:00Z,26.6955,-81.8138,1.535,0.76,1111122 
SCCF RECON,ioos:station:SCCF:18:1,2017-06-09T10:00:00Z,26.6955,-81.8138,1.529,0.62,1111122 
SCCF RECON,ioos:station:SCCF:18:1,2017-06-09T11:00:00Z,26.6955,-81.8138,1.48,0.63,1111122 
SCCF RECON,ioos:station:SCCF:18:1,2017-06-09T12:00:00Z,26.6955,-81.8138,1.44,0.7,1111122 
SCCF RECON,ioos:station:SCCF:18:1,2017-06-09T13:00:00Z,26.6955,-81.8138,1.42,0.69,1111122 
SCCF RECON,ioos:station:SCCF:18:1,2017-06-09T14:00:00Z,26.6955,-81.8138,1.418,0.74,1111122 
SCCF RECON,ioos:station:SCCF:18:1,2017-06-09T15:00:00Z,26.6955,-81.8138,1.413,0.66,1111122 
SCCF RECON,ioos:station:SCCF:18:1,2017-06-09T16:00:00Z,26.6955,-81.8138,1.449,0.56,1111122 
SCCF RECON,ioos:station:SCCF:18:1,2017-06-09T17:00:00Z,26.6955,-81.8138,1.541,0.54,1111122 
SCCF RECON,ioos:station:SCCF:18:1,2017-06-09T18:00:00Z,26.6955,-81.8138,1.616,0.5,1111122 
SCCF RECON,ioos:station:SCCF:18:1,2017-06-09T19:00:00Z,26.6955,-81.8138,1.673,0.46,1111122 
SCCF RECON,ioos:station:SCCF:18:1,2017-06-09T20:00:00Z,26.6955,-81.8138,1.693,0.46,1111122 
SCCF RECON,ioos:station:SCCF:18:1,2017-06-09T21:00:00Z,26.6955,-81.8138,1.683,0.44,1111122 
SCCF RECON,ioos:station:SCCF:18:1,2017-06-09T22:00:00Z,26.6955,-81.8138,1.619,0.74,1111122 
SCCF RECON,ioos:station:SCCF:18:1,2017-06-09T23:00:00Z,26.6955,-81.8138,1.555,0.75,1111122 
SCCF RECON,ioos:station:SCCF:18:1,2017-06-10T00:00:00Z,26.6955,-81.8138,1.503,0.57,1111122 
SCCF RECON,ioos:station:SCCF:18:1,2017-06-10T01:00:00Z,26.6955,-81.8138,1.451,0.46,1111122 
SCCF RECON,ioos:station:SCCF:18:1,2017-06-10T02:00:00Z,26.6955,-81.8138,1.4,0.36,1111122 
SCCF RECON,ioos:station:SCCF:18:1,2017-06-10T03:00:00Z,26.6955,-81.8138,1.349,0.37,1111122 
SCCF RECON,ioos:station:SCCF:18:1,2017-06-10T04:00:00Z,26.6955,-81.8138,1.301,0.36,1111122 
SCCF RECON,ioos:station:SCCF:18:1,2017-06-10T05:00:00Z,26.6955,-81.8138,1.299,0.33,1111122 
SCCF RECON,ioos:station:SCCF:18:1,2017-06-10T06:00:00Z,26.6955,-81.8138,1.29,0.33,1111122 
SCCF RECON,ioos:station:SCCF:18:1,2017-06-10T07:00:00Z,26.6955,-81.8138,1.379,0.34,1111122 
SCCF RECON,ioos:station:SCCF:18:1,2017-06-10T08:00:00Z,26.6955,-81.8138,1.457,0.34,1111122 
SCCF RECON,ioos:station:SCCF:18:1,2017-06-10T09:00:00Z,26.6955,-81.8138,1.521,0.33,1111122 
SCCF RECON,ioos:station:SCCF:18:1,2017-06-10T10:00:00Z,26.6955,-81.8138,1.557,0.34,1111122 
SCCF RECON,ioos:station:SCCF:18:1,2017-06-10T11:00:00Z,26.6955,-81.8138,1.564,0.35,1111122 
SCCF RECON,ioos:station:SCCF:18:1,2017-06-10T12:00:00Z,26.6955,-81.8138,1.555,0.46,1111122 
SCCF RECON,ioos:station:SCCF:18:1,2017-06-10T13:00:00Z,26.6955,-81.8138,1.526,0.46,1111122 
SCCF RECON,ioos:station:SCCF:18:1,2017-06-10T14:00:00Z,26.6955,-81.8138,1.494,0.42,1111122 
SCCF RECON,ioos:station:SCCF:18:1,2017-06-10T15:00:00Z,26.6955,-81.8138,1.48,0.33,1111122 
SCCF RECON,ioos:station:SCCF:18:1,2017-06-10T16:00:00Z,26.6955,-81.8138,1.53,0.37,1111122 
SCCF RECON,ioos:station:SCCF:18:1,2017-06-10T17:00:00Z,26.6955,-81.8138,1.626,0.46,1111122 
SCCF RECON,ioos:station:SCCF:18:1,2017-06-10T18:00:00Z,26.6955,-81.8138,1.677,0.42,1111122 
SCCF RECON,ioos:station:SCCF:18:1,2017-06-10T19:00:00Z,26.6955,-81.8138,1.713,0.34,1111122 
SCCF RECON,ioos:station:SCCF:18:1,2017-06-10T20:00:00Z,26.6955,-81.8138,1.728,0.34,1111122 
SCCF RECON,ioos:station:SCCF:18:1,2017-06-10T21:00:00Z,26.6955,-81.8138,1.732,0.37,1111122 
SCCF RECON,ioos:station:SCCF:18:1,2017-06-10T22:00:00Z,26.6955,-81.8138,1.679,0.35,1111122 
SCCF RECON,ioos:station:SCCF:18:1,2017-06-10T23:00:00Z,26.6955,-81.8138,1.601,0.37,1111122 
SCCF RECON,ioos:station:SCCF:18:1,2017-06-11T00:00:00Z,26.6955,-81.8138,1.53,0.37,1111122 
SCCF RECON,ioos:station:SCCF:18:1,2017-06-11T01:00:00Z,26.6955,-81.8138,1.476,0.34,1111122 
SCCF RECON,ioos:station:SCCF:18:1,2017-06-11T02:00:00Z,26.6955,-81.8138,1.435,0.36,1111122 
SCCF RECON,ioos:station:SCCF:18:1,2017-06-11T03:00:00Z,26.6955,-81.8138,1.39,0.35,1111122 
SCCF RECON,ioos:station:SCCF:18:1,2017-06-11T04:00:00Z,26.6955,-81.8138,1.338,0.36,1111122 
SCCF RECON,ioos:station:SCCF:18:1,2017-06-11T05:00:00Z,26.6955,-81.8138,1.287,0.37,1111122 
SCCF RECON,ioos:station:SCCF:18:1,2017-06-11T06:00:00Z,26.6955,-81.8138,1.267,0.37,1111122 
SCCF RECON,ioos:station:SCCF:18:1,2017-06-11T07:00:00Z,26.6955,-81.8138,1.286,0.33,1111122 
SCCF RECON,ioos:station:SCCF:18:1,2017-06-11T08:00:00Z,26.6955,-81.8138,1.358,0.34,1111122 
SCCF RECON,ioos:station:SCCF:18:1,2017-06-11T09:00:00Z,26.6955,-81.8138,1.438,0.33,1111122 
SCCF RECON,ioos:station:SCCF:18:1,2017-06-11T10:00:00Z,26.6955,-81.8138,1.476,0.33,1111122 
SCCF RECON,ioos:station:SCCF:18:1,2017-06-11T11:00:00Z,26.6955,-81.8138,1.484,0.33,1111122 
SCCF RECON,ioos:station:SCCF:18:1,2017-06-11T12:00:00Z,26.6955,-81.8138,1.51,0.34,1111122 
SCCF RECON,ioos:station:SCCF:18:1,2017-06-11T13:00:00Z,26.6955,-81.8138,1.499,0.35,1111122 
SCCF RECON,ioos:station:SCCF:18:1,2017-06-11T14:00:00Z,26.6955,-81.8138,1.459,0.36,1111122 
SCCF RECON,ioos:station:SCCF:18:1,2017-06-11T15:00:00Z,26.6955,-81.8138,1.43,0.37,1111122 
SCCF RECON,ioos:station:SCCF:18:1,2017-06-11T16:00:00Z,26.6955,-81.8138,1.421,0.34,1111122 
SCCF RECON,ioos:station:SCCF:18:1,2017-06-11T17:00:00Z,26.6955,-81.8138,1.466,0.32,1111122 
SCCF RECON,ioos:station:SCCF:18:1,2017-06-11T18:00:00Z,26.6955,-81.8138,1.57,0.31,1111122 
SCCF RECON,ioos:station:SCCF:18:1,2017-06-11T19:00:00Z,26.6955,-81.8138,1.644,0.31,1111122 